Theta_e
292 292 292 292 292 292 292 292 293 293 294 294 295 296 296 297 297 297 297 297 297 297 297 297 297 298 299 300 300 300 300 300 299 298 297 297 297 297 298 298 298 298 298 298 298 297 296 296 296 296 296 295 295 295 295 295 295 294 295 295 295 296 297 297 297 297 296 296 296 296 296 296 296 296 296 296 296 296 296 296 295 296 296 295 293
291 291 291 291 291 291 290 290 290 290 291 291 292 293 294 294 294 295 295 295 295 296 296 296 296 296 297 297 298 299 300 300 299 298 297 297 296 296 296 297 297 298 298 298 298 298 297 296 296 296 296 295 295 295 295 295 295 294 294 294 294 294 295 296 296 296 296 296 296 296 296 296 296 296 296 296 296 296 296 296 296 296 296 295 293
290 290 290 290 290 290 289 289 289 289 289 289 289 289 290 291 291 292 292 292 292 293 293 294 294 295 296 296 296 297 297 298 299 298 297 296 296 296 295 295 296 296 297 297 297 297 297 297 296 296 295 295 295 295 295 295 294 294 294 294 294 293 293 294 294 295 295 295 295 295 295 295 296 296 296 296 296 296 296 296 296 296 296 295 294
290 290 290 289 289 289 289 288 288 288 287 287 287 287 287 288 288 289 289 290 290 290 290 290 291 292 292 294 294 295 295 296 297 298 298 297 296 296 295 295 295 295 296 296 297 297 297 296 296 296 295 296 295 295 295 294 294 294 294 294 294 293 293 293 293 293 294 294 295 295 295 295 295 295 295 295 296 296 295 295 295 295 295 295 294
290 290 289 289 289 288 288 288 288 287 287 287 287 286 286 286 286 287 287 287 288 288 289 289 289 289 289 290 291 291 292 293 293 295 296 296 297 297 296 296 296 295 295 295 295 296 296 296 296 295 295 295 295 295 294 294 294 294 294 294 294 293 293 293 293 293 293 293 294 294 294 294 295 295 295 295 295 295 295 295 295 295 294 294 294
289 289 289 289 288 288 288 287 287 287 287 287 287 286 286 286 286 286 286 286 286 286 287 287 287 288 288 288 288 288 289 290 290 291 292 293 294 295 296 296 296 296 296 296 295 295 295 295 295 294 294 294 294 294 294 294 294 294 294 294 293 293 293 293 292 292 292 292 293 293 294 294 294 294 294 294 295 295 295 295 294 294 294 294 294
288 288 288 288 288 288 287 287 287 287 287 287 287 287 287 287 286 286 286 286 286 286 286 286 286 286 287 287 287 287 287 288 288 289 289 290 291 292 293 294 295 296 296 296 296 295 295 294 294 294 294 294 293 293 293 293 294 294 294 294 293 293 293 293 292 292 292 292 292 293 293 293 293 294 294 294 294 294 294 294 294 294 294 294 294
288 288 288 287 287 287 287 287 287 287 287 287 287 287 287 287 287 287 287 287 287 286 286 286 286 286 286 286 286 286 287 287 287 287 288 288 288 289 289 290 291 292 294 295 296 296 296 295 294 293 293 293 293 292 292 292 292 293 293 293 293 293 293 292 292 292 291 291 291 292 292 292 292 293 293 293 293 293 294 294 294 294 294 294 294
287 287 287 287 287 287 287 287 287 287 287 287 287 287 287 287 287 287 287 287 287 287 287 287 286 286 286 286 286 286 286 286 286 286 286 287 287 287 287 288 288 289 290 291 292 294 295 295 295 294 293 293 292 291 291 292 292 292 292 292 292 292 292 292 292 291 291 291 291 291 291 292 292 292 292 292 293 293 293 293 294 294 294 294 294
288 288 288 288 288 288 288 288 288 288 287 287 287 287 287 287 287 287 287 287 287 287 287 287 287 287 286 286 286 286 286 286 286 286 286 286 286 286 286 286 286 287 287 288 289 290 291 292 294 295 295 294 293 292 291 291 291 291 291 291 291 292 292 292 292 291 291 290 291 291 291 291 291 291 292 292 292 292 293 293 293 293 293 293 293
288 288 288 288 288 288 288 288 288 288 288 288 288 288 288 288 287 287 287 287 287 287 287 287 287 287 287 287 286 286 286 286 286 286 286 286 286 286 286 286 286 286 286 286 287 287 287 288 289 291 293 294 294 293 292 292 291 291 291 290 291 291 291 291 291 291 291 290 290 290 290 290 291 290 291 291 291 292 292 292 293 293 293 293 293
288 288 288 288 288 288 288 288 288 288 288 288 288 288 288 288 288 288 288 288 287 287 287 287 287 287 287 287 287 287 287 286 286 286 286 286 286 286 286 286 286 286 286 286 286 286 286 286 287 287 289 290 292 293 294 294 293 292 291 291 291 291 291 290 291 291 291 290 290 290 290 290 290 290 290 290 290 291 291 291 292 292 293 293 293
288 287 287 287 287 287 287 287 287 288 288 288 288 288 288 288 288 288 288 288 288 288 288 287 287 287 287 287 287 287 287 287 287 286 286 286 286 286 286 286 286 286 286 286 286 285 285 285 286 286 286 287 288 290 292 293 294 293 293 292 291 291 291 290 290 290 290 290 290 290 290 290 289 289 289 289 289 290 290 290 291 291 292 293 293
288 287 287 286 286 286 287 287 287 287 287 287 287 287 287 287 288 288 287 287 287 287 287 287 287 287 287 287 287 287 287 287 287 287 286 286 286 286 286 286 286 286 286 286 286 286 285 285 285 285 285 286 286 286 288 290 292 293 293 293 293 292 291 291 290 290 289 289 289 290 290 290 289 289 289 289 289 289 290 290 290 291 291 292 293
287 287 286 286 286 286 286 285 285 285 285 285 285 285 285 285 285 285 285 285 285 286 286 286 286 287 287 287 287 287 287 287 287 287 287 287 286 286 286 286 286 286 286 286 286 286 286 286 285 285 285 285 285 285 286 287 289 291 292 293 293 293 292 292 292 291 290 289 289 289 290 290 289 289 289 289 289 289 289 289 290 290 291 291 292
287 286 286 286 285 284 284 284 283 283 283 283 283 283 283 282 282 282 282 283 283 284 284 284 284 285 285 285 285 286 287 287 287 287 287 287 286 286 286 286 286 286 286 286 286 286 286 286 286 286 286 285 285 285 285 285 287 289 291 292 293 293 293 293 293 292 291 290 289 289 289 289 289 289 289 289 289 288 288 288 288 289 289 290 290
285 285 284 284 283 283 282 282 281 281 281 281 281 281 281 280 280 280 280 280 281 282 282 282 283 283 283 284 284 284 285 286 286 286 286 286 286 286 286 286 286 286 286 286 286 286 286 286 286 286 286 286 285 285 285 285 286 287 289 290 292 292 293 294 293 292 291 291 290 289 289 288 288 288 288 288 288 288 288 287 287 288 288 288 289
283 283 283 282 282 282 281 280 279 279 279 279 279 279 279 279 278 278 278 278 279 279 280 280 280 281 281 282 282 283 283 285 285 286 286 286 286 286 285 285 285 285 286 286 286 286 286 286 286 286 286 286 286 285 284 284 285 285 286 288 290 291 292 294 292 291 290 290 290 290 289 288 288 287 287 287 288 288 288 288 288 287 288 288 288
282 282 282 282 281 281 280 279 278 278 278 278 278 277 278 278 277 277 276 276 277 277 277 277 278 279 280 280 280 281 281 283 284 284 284 285 285 285 284 283 283 284 285 286 286 286 286 286 286 286 286 286 286 285 284 284 284 285 285 286 288 290 291 292 291 290 290 290 290 290 290 289 289 288 287 287 287 287 287 287 287 287 287 288 288
282 281 281 280 280 280 279 278 278 278 278 277 277 277 276 276 276 275 275 274 275 275 275 275 275 276 277 278 278 279 280 281 282 282 282 283 283 284 283 282 282 283 284 285 285 285 285 285 286 286 286 286 286 285 285 284 284 284 284 285 287 287 289 290 290 290 290 289 289 289 289 289 289 288 288 287 287 286 287 287 287 287 287 287 287
281 280 280 279 279 279 278 278 278 277 277 276 276 276 275 274 273 273 273 272 272 273 273 273 273 274 275 275 276 277 278 279 280 281 281 281 282 282 281 281 281 282 282 283 283 284 284 285 286 286 286 286 286 285 285 284 284 284 284 285 285 285 287 289 289 289 288 288 288 288 288 288 288 288 288 288 287 287 286 286 286 286 286 287 286
279 279 279 278 278 278 278 277 277 276 276 275 275 275 274 273 272 271 271 271 271 271 271 271 271 272 272 273 273 274 275 276 276 278 279 280 280 281 280 280 281 281 281 282 282 283 283 284 285 285 285 285 285 285 285 284 284 284 284 284 284 284 286 288 289 288 287 287 287 287 287 287 287 287 287 288 288 287 287 286 286 285 285 286 286
278 278 278 278 278 277 277 276 276 275 274 273 273 273 272 272 271 270 269 269 269 269 269 269 269 270 270 271 271 271 272 273 273 274 275 276 277 278 278 278 279 279 280 281 282 282 283 283 284 284 285 285 285 285 285 284 284 283 284 284 284 284 286 288 288 287 287 286 286 286 286 286 286 286 286 287 287 287 286 286 285 285 285 285 285
278 278 278 277 277 277 276 276 274 273 272 271 271 270 270 269 269 268 267 267 266 267 267 267 268 268 268 269 269 270 270 271 271 271 272 273 274 275 276 277 278 279 280 281 282 282 282 283 283 284 284 284 284 284 284 284 283 283 283 283 283 285 286 287 287 287 287 286 286 286 286 286 286 286 286 286 286 286 286 285 285 285 284 284 284
278 277 277 277 277 276 275 274 273 272 271 270 269 268 267 267 266 266 265 265 265 265 265 266 266 267 267 267 268 268 269 269 269 270 270 271 272 273 274 275 277 278 279 280 281 282 282 282 283 283 283 283 283 283 283 283 283 283 283 283 284 285 286 287 287 287 286 286 286 286 286 286 286 285 285 285 285 285 285 284 284 284 284 284 284
277 277 277 276 275 274 273 272 271 270 269 268 267 267 266 266 265 265 264 264 264 264 264 265 265 265 266 266 266 267 267 267 268 268 269 270 270 271 272 274 275 276 278 279 280 282 283 283 283 283 283 283 282 282 282 282 283 283 283 284 284 285 286 287 287 287 286 286 286 286 285 285 285 285 285 284 284 284 284 284 283 283 283 283 283
276 276 276 275 273 272 271 270 269 269 268 267 266 266 266 265 265 264 264 264 264 264 264 264 264 264 265 265 265 265 266 266 266 267 267 268 268 269 270 271 273 274 276 277 278 280 281 281 282 282 283 283 283 282 282 282 282 283 282 283 284 284 284 285 286 286 286 286 286 286 285 285 284 284 284 284 284 283 283 283 283 283 283 282 282
275 275 274 273 272 271 270 269 268 267 267 266 265 265 265 265 264 264 264 264 264 264 264 264 264 265 265 265 265 266 266 266 266 266 267 267 268 268 269 270 271 272 274 275 277 278 279 280 281 281 282 283 283 283 283 282 282 282 282 283 283 283 283 284 286 286 286 286 286 285 285 284 284 284 283 283 283 283 283 282 282 282 282 282 282
275 274 273 272 270 269 268 267 267 266 266 266 265 265 265 265 264 264 264 264 264 264 265 265 265 266 266 266 267 267 267 267 267 268 268 269 269 270 270 271 271 272 273 274 275 277 277 278 280 281 281 281 282 282 282 282 282 282 282 283 282 283 283 284 285 286 286 286 285 285 285 284 284 283 283 283 282 282 282 282 282 281 281 281 281
274 273 271 269 268 267 266 266 266 266 266 266 265 265 265 264 264 263 264 264 264 265 265 266 266 267 267 267 268 268 268 268 269 269 270 270 271 271 272 272 273 273 274 275 275 276 277 278 279 280 280 280 281 281 281 281 282 282 282 283 283 283 283 284 285 285 286 286 285 285 284 284 284 283 282 282 282 282 282 281 281 281 281 281 280
273 271 269 267 267 267 267 267 267 266 265 265 264 263 263 263 264 264 264 264 264 265 266 266 267 267 267 268 268 268 268 269 269 269 270 270 270 271 271 272 273 273 274 275 275 276 277 278 279 280 280 280 280 281 281 281 282 282 282 283 283 283 283 283 284 285 285 285 285 285 284 284 283 283 282 282 281 281 281 280 280 280 280 280 280
271 269 267 267 268 268 268 267 266 265 265 264 264 263 262 262 263 264 264 264 264 264 265 265 266 266 267 267 267 267 268 268 268 269 269 270 270 270 271 271 272 273 274 274 275 276 276 277 278 279 281 281 281 281 281 281 282 282 282 282 283 283 283 283 284 284 285 285 285 284 284 283 283 283 282 281 281 281 280 280 279 279 279 279 279
269 268 268 268 269 268 268 267 266 265 265 264 263 263 262 262 262 263 263 264 264 265 265 265 265 265 266 266 266 267 267 268 268 269 269 270 270 271 271 272 272 273 273 274 274 275 275 276 277 278 280 281 282 281 281 281 281 282 282 282 282 282 283 283 283 284 284 284 284 284 283 283 283 282 282 281 281 280 280 280 279 279 278 278 279
269 269 269 269 269 268 268 267 266 265 264 263 263 262 262 262 262 262 263 263 264 265 265 266 266 265 265 265 266 266 267 267 268 269 269 270 270 271 272 272 273 273 273 274 274 274 275 276 277 278 279 280 281 282 281 281 281 281 281 282 282 282 282 283 283 284 284 284 284 284 283 282 282 282 281 281 280 280 279 279 279 278 278 278 278
269 270 271 270 269 268 268 267 266 265 264 263 263 263 262 263 263 263 263 263 263 264 265 266 266 266 266 265 266 266 267 267 268 268 269 270 270 271 272 272 273 273 273 274 274 274 274 275 276 277 278 279 280 281 282 282 281 281 281 281 282 282 282 283 283 283 283 283 283 283 283 282 282 282 282 281 280 279 279 278 278 278 277 277 278
271 271 272 271 270 269 268 268 267 266 264 263 263 263 263 263 263 263 263 264 264 264 265 265 266 267 267 267 267 267 267 267 267 268 269 270 271 271 272 272 273 273 273 274 274 274 274 275 275 277 278 279 280 281 282 282 282 281 281 281 282 282 282 283 283 283 283 283 283 283 282 282 281 281 281 280 280 279 279 278 278 277 277 277 277
272 272 272 271 270 269 269 269 268 266 265 264 263 263 263 264 264 264 264 264 264 265 265 265 266 267 268 269 269 268 268 268 268 269 270 271 272 272 272 272 272 273 274 275 275 275 275 275 275 277 278 279 280 281 282 282 282 281 281 281 282 282 282 283 283 283 283 283 282 282 282 281 281 281 280 279 278 278 278 278 277 277 276 277 277
272 272 272 271 270 269 269 269 268 267 266 265 265 264 264 264 264 264 264 265 265 265 265 266 266 267 268 269 269 269 269 269 270 271 272 273 273 272 273 273 273 274 275 276 277 276 276 275 276 277 278 279 280 282 282 282 282 282 282 282 282 282 282 282 282 282 282 282 282 282 281 281 280 280 279 279 278 278 278 277 276 276 276 276 276
273 273 272 271 270 270 269 269 268 268 267 266 266 265 264 264 265 265 265 265 265 266 266 266 267 267 268 269 269 269 269 269 270 270 272 272 273 273 273 274 274 275 276 277 277 278 277 277 277 277 277 278 280 282 283 283 282 282 282 282 282 282 282 282 282 282 282 282 282 281 281 280 280 279 279 278 278 278 277 277 276 276 276 276 276
273 273 273 272 271 270 270 269 269 268 267 266 266 265 265 265 265 265 265 265 266 266 266 266 267 268 268 269 269 269 269 269 269 270 271 272 272 273 273 274 275 276 277 277 278 279 279 279 279 279 279 280 280 282 283 283 282 282 282 282 282 282 282 282 282 281 281 281 281 281 280 280 279 278 278 277 277 277 277 276 276 275 276 276 276
273 273 273 272 271 270 270 269 269 269 268 267 266 266 265 265 265 265 265 265 266 266 266 266 267 268 269 269 268 268 269 269 269 270 270 271 271 272 273 274 275 276 277 278 279 280 280 281 281 281 281 281 281 282 282 283 283 282 282 282 282 282 281 281 281 281 281 280 280 280 280 279 279 278 277 277 277 276 276 276 275 275 275 275 275
273 273 272 271 271 270 270 270 269 269 269 269 268 267 266 266 265 265 265 265 265 265 266 266 267 268 269 269 268 269 269 270 270 270 271 272 272 273 274 275 275 276 277 278 279 280 281 281 281 282 282 282 282 282 282 282 282 282 282 282 281 281 281 281 280 280 280 280 280 280 279 279 278 277 277 276 276 276 275 275 275 274 274 274 275
272 272 272 271 271 270 270 270 270 270 270 270 269 268 267 267 266 265 265 265 265 265 266 266 267 269 270 270 270 270 270 271 271 271 272 272 273 273 274 275 275 276 276 278 279 280 280 281 281 281 282 282 282 282 282 282 282 282 282 281 281 280 280 280 280 280 279 279 279 278 278 278 277 276 276 276 276 275 275 275 274 274 274 274 274
271 272 271 271 271 271 270 270 270 271 271 271 270 270 269 268 268 267 266 266 266 266 266 266 268 269 270 271 271 271 271 271 271 272 272 273 273 274 274 274 275 275 276 277 279 280 280 280 281 281 281 281 281 281 281 281 281 281 281 280 280 280 280 280 280 279 279 279 278 278 277 276 276 276 275 276 275 275 274 274 274 274 274 274 274
271 271 271 271 271 271 271 271 271 271 271 271 271 271 270 269 269 269 268 267 268 268 267 268 268 269 270 271 271 271 271 271 271 271 272 272 273 274 274 274 275 275 276 277 278 279 280 280 280 280 280 280 280 280 280 280 280 279 279 279 279 279 279 279 279 278 278 278 278 277 276 276 275 275 275 275 275 275 275 274 274 274 274 274 274
271 271 271 271 271 271 271 271 271 271 271 271 271 271 271 270 270 269 269 268 268 269 269 269 270 270 270 271 271 271 271 271 271 271 272 272 272 273 274 274 274 275 275 276 277 278 278 279 279 279 279 279 279 279 279 279 279 278 278 278 278 278 278 278 278 277 277 277 277 276 276 275 275 275 275 275 275 274 274 274 274 274 274 274 273
270 270 270 270 271 271 271 271 271 271 271 271 271 271 271 271 271 270 270 269 269 270 270 270 271 271 271 271 271 271 271 271 271 272 272 272 272 273 273 273 274 274 275 275 276 277 277 277 277 277 277 277 277 278 278 278 278 278 277 277 277 277 277 276 276 276 276 275 275 275 275 275 275 275 275 275 274 274 274 274 274 274 273 273 273
270 270 270 270 270 270 270 271 271 271 271 271 271 271 271 271 271 271 270 270 270 270 270 270 271 271 271 271 271 271 271 272 272 272 272 272 272 272 273 273 273 274 274 275 275 275 276 275 276 276 276 276 276 276 276 276 276 276 276 276 276 276 275 275 275 275 274 274 274 274 275 275 275 275 275 274 274 274 274 274 273 273 272 272 272
269 269 270 270 270 270 270 270 270 271 271 271 271 271 271 271 271 271 270 270 270 270 270 270 270 270 270 270 271 271 271 271 271 272 272 272 272 272 272 273 273 273 274 274 274 274 274 274 274 274 274 274 274 275 275 275 275 275 275 275 274 274 274 274 274 274 274 274 274 274 275 275 275 275 274 274 274 273 273 273 272 272 272 272 271
268 269 269 270 270 270 270 270 270 270 270 270 270 270 270 270 270 270 270 270 270 270 270 270 270 270 270 270 270 270 270 270 271 271 271 271 271 271 272 272 272 273 273 273 273 273 273 273 273 273 273 273 273 273 274 274 274 274 274 274 274 274 273 273 273 273 273 274 274 274 274 274 274 274 273 273 273 273 272 272 272 272 271 271 271
268 268 268 269 269 269 270 270 270 270 270 270 270 270 270 270 270 270 270 270 270 270 270 270 270 269 270 270 270 270 270 270 270 270 270 270 270 271 271 271 271 272 272 272 272 272 272 272 272 273 273 273 273 273 273 273 274 273 273 273 273 273 273 273 273 273 273 273 273 273 274 273 273 273 273 273 272 272 272 271 271 271 271 270 270
Wind_Speed
19 19 19 19 18 17 17 16 16 15 15 14 15 16 17 18 19 19 20 21 21 21 21 21 21 20 19 19 19 19 19 19 17 16 17 18 19 20 21 21 23 24 24 25 26 27 30 33 36 38 39 42 44 46 48 49 50 51 50 49 48 47 44 42 43 42 40 39 38 35 33 32 33 32 31 31 30 29 29 28 29 30 29 29 29
19 19 19 19 19 19 19 18 18 17 16 15 15 15 16 17 18 19 20 20 21 22 22 22 21 21 21 20 19 19 19 19 19 19 19 18 18 19 19 21 22 23 24 25 26 26 28 30 32 33 35 38 41 43 45 46 48 50 51 52 53 52 51 49 48 45 43 42 41 40 38 36 35 35 34 32 31 30 30 30 30 31 30 29 29
19 19 18 18 18 19 19 19 19 19 18 17 16 16 16 16 17 19 20 21 22 23 23 23 23 23 22 22 21 20 20 19 19 19 20 20 21 20 20 20 22 22 24 25 26 26 27 29 30 30 31 35 38 40 41 43 45 47 48 50 52 53 53 52 52 50 48 46 45 45 44 42 40 38 36 34 32 32 32 31 31 31 31 30 30
20 20 20 20 19 19 19 20 20 20 20 19 19 18 17 17 17 17 19 20 22 23 24 25 24 24 24 24 23 23 21 20 19 19 19 20 21 22 22 22 22 23 23 24 25 26 27 29 29 29 30 33 35 36 37 39 41 44 46 47 49 50 50 51 52 52 51 50 49 48 47 47 45 41 38 37 36 35 34 34 34 33 32 31 31
19 19 20 20 20 20 20 20 20 20 20 20 20 20 20 19 19 18 18 18 19 20 22 24 25 25 25 24 24 24 23 21 20 19 19 19 20 21 22 24 24 25 25 25 25 26 27 29 29 29 30 33 35 35 35 36 38 40 43 45 46 47 48 49 50 51 51 52 52 49 47 47 46 44 42 40 39 38 37 37 36 35 34 34 33
19 19 19 20 21 21 22 22 22 23 22 22 23 23 23 23 22 21 21 20 19 19 19 20 22 24 25 25 25 25 24 23 22 21 20 19 19 20 21 22 23 25 26 27 27 27 27 28 29 29 31 33 35 35 35 35 36 37 39 41 42 44 45 47 48 49 50 52 52 51 49 48 48 47 46 44 43 42 41 40 39 38 37 36 36
20 20 21 21 22 22 23 25 26 26 27 27 26 26 26 26 26 26 25 25 24 23 22 21 21 22 23 25 26 26 27 26 25 24 23 22 22 21 21 21 22 23 24 25 27 28 29 30 29 30 31 33 34 34 34 35 36 37 37 38 39 40 43 45 46 47 49 50 51 52 52 51 50 49 49 47 45 44 44 44 43 41 40 39 39
20 21 22 22 23 24 24 26 27 28 30 30 30 31 30 30 30 30 29 29 29 28 28 26 25 23 23 23 24 26 27 27 27 26 26 25 25 24 24 24 23 24 23 24 24 26 28 30 31 32 32 33 34 33 34 34 35 37 37 37 37 39 41 43 44 46 48 49 51 52 52 51 50 50 49 48 48 50 49 47 45 43 42 42 40
20 21 22 23 24 25 26 27 28 29 30 32 33 33 34 34 34 34 33 33 33 33 33 33 32 30 28 26 25 25 26 26 26 27 27 27 27 27 27 27 26 26 26 25 25 25 26 27 29 31 33 34 35 34 33 33 34 36 36 36 37 39 40 42 43 45 47 48 49 51 52 52 53 53 53 55 56 55 52 49 47 45 44 42 41
22 23 24 24 25 27 28 29 30 31 32 33 34 35 36 37 37 38 38 38 38 38 38 38 37 37 36 34 32 30 28 27 26 26 26 27 27 28 29 29 29 29 29 28 28 27 26 26 26 28 29 32 34 35 35 34 34 35 34 34 36 39 41 42 43 45 47 48 50 51 52 55 56 56 57 58 57 55 53 51 49 47 45 44 45
24 24 25 26 27 28 29 31 32 34 35 36 37 38 39 40 40 41 41 42 42 42 42 43 42 42 41 41 39 37 35 32 30 28 27 27 27 29 30 30 30 30 31 31 31 29 28 27 27 26 27 28 30 32 34 35 35 34 34 34 35 37 40 43 44 45 46 48 50 51 53 57 59 57 56 56 55 54 54 52 50 49 48 48 48
25 26 27 28 29 30 31 32 33 35 36 38 39 41 42 43 44 44 45 45 45 45 46 46 46 46 47 46 45 44 42 40 37 34 32 31 30 30 31 32 32 32 32 32 32 32 31 30 29 28 28 27 27 28 29 32 34 34 34 34 34 36 39 42 45 45 46 49 51 51 54 57 58 57 56 56 55 54 53 52 51 51 51 50 50
27 29 31 32 33 35 35 36 37 38 39 40 41 43 45 46 48 49 50 50 49 49 48 48 48 48 49 50 50 50 48 46 44 42 40 37 35 34 34 34 34 34 34 33 33 33 33 32 31 31 30 28 27 27 28 28 30 31 33 34 35 36 37 40 44 46 47 49 51 54 56 56 54 55 55 55 54 54 54 54 52 51 51 52 51
27 30 33 36 38 39 40 41 43 44 45 45 45 46 48 49 51 52 53 53 53 53 52 52 51 50 50 51 52 52 52 51 50 49 48 45 42 40 39 38 38 38 36 35 35 34 33 33 33 33 32 30 29 28 28 28 28 28 30 32 35 37 37 38 41 45 48 51 53 55 56 54 53 52 52 51 52 54 54 54 53 52 51 51 49
30 34 38 40 41 41 42 43 44 46 46 46 46 48 49 50 51 53 53 53 54 54 54 54 54 54 53 53 53 53 53 52 52 53 53 52 51 48 46 45 44 42 41 39 38 36 35 34 34 34 34 33 31 29 28 28 28 29 30 30 33 35 38 40 41 43 47 50 54 56 55 53 51 51 51 51 52 52 51 51 51 50 50 50 50
36 39 40 41 40 40 41 42 44 45 45 45 45 47 48 49 51 52 52 54 56 56 56 56 56 56 56 55 56 56 55 54 53 54 54 55 55 55 54 52 50 48 46 44 42 40 38 37 36 36 35 34 33 31 29 27 28 30 31 32 32 33 36 40 42 42 43 46 50 54 55 53 50 50 51 51 51 48 46 46 47 48 49 50 51
37 38 39 40 40 41 41 42 43 43 43 44 46 48 49 50 52 52 52 54 57 59 60 60 59 59 59 59 59 59 59 57 56 55 55 54 55 56 57 56 55 54 52 50 47 44 42 40 38 37 37 36 35 33 30 28 28 30 32 33 33 34 35 37 39 41 42 42 44 48 51 52 52 50 50 51 51 48 45 46 49 49 50 50 51
38 39 41 42 43 44 44 44 44 45 46 48 50 52 54 54 55 54 53 55 58 60 62 62 63 63 62 62 62 61 62 62 60 58 57 56 56 57 57 57 56 57 57 55 53 49 46 44 41 40 39 38 37 35 32 30 30 31 33 34 35 37 36 35 37 40 41 42 43 44 46 49 51 51 50 50 51 49 49 50 50 50 50 52 52
42 44 46 48 49 50 50 49 50 50 52 53 54 55 56 57 56 55 54 54 56 59 60 60 61 63 63 64 64 64 65 66 64 63 61 60 58 58 57 56 56 58 59 59 58 55 50 47 44 43 42 40 38 37 35 32 31 32 33 34 37 39 37 36 37 39 41 43 44 44 44 46 49 51 52 51 50 51 53 53 51 51 52 53 52
47 49 50 51 52 52 52 53 53 54 54 55 55 56 56 56 55 54 52 52 53 55 56 56 58 60 61 62 63 64 66 67 67 66 64 63 62 62 59 56 55 57 59 59 58 57 55 51 48 46 44 42 40 39 37 34 33 33 33 35 38 39 37 37 39 39 40 43 44 43 43 44 45 49 51 52 52 52 53 52 51 52 54 53 52
49 50 51 52 52 53 53 53 53 54 54 55 56 56 56 53 53 53 52 52 52 54 55 55 56 59 61 61 62 64 66 67 67 67 66 64 64 64 63 60 57 56 57 57 57 56 56 56 53 49 46 45 42 40 39 37 35 34 34 35 37 36 35 38 40 39 39 41 42 42 43 43 43 45 48 51 53 54 54 53 52 53 54 53 53
50 51 52 52 52 52 52 52 53 53 54 54 54 56 56 53 52 52 50 50 51 53 54 55 55 58 60 60 61 63 64 65 65 66 66 65 64 63 63 62 61 58 55 56 57 57 57 58 57 54 50 47 45 43 41 39 37 36 36 36 35 34 34 36 39 40 40 41 40 41 42 42 44 45 46 48 51 53 54 54 52 52 53 53 53
50 51 51 52 52 52 53 53 53 53 53 53 53 54 54 51 49 48 46 45 46 48 50 50 51 53 56 57 58 58 59 60 60 60 61 62 62 62 61 60 60 58 56 56 57 57 57 57 57 56 54 51 47 44 42 41 39 38 38 37 36 35 34 35 37 40 42 41 41 41 42 42 43 45 45 47 47 49 51 53 52 52 52 52 53
50 50 51 52 52 53 53 53 53 52 51 50 49 49 48 46 44 43 41 40 41 43 45 45 46 48 51 53 53 52 52 52 53 53 54 55 55 55 54 53 51 50 51 53 54 56 57 57 57 56 55 52 48 45 42 42 41 40 40 39 37 34 34 35 37 39 41 42 42 43 43 43 43 44 45 45 45 45 47 49 51 51 52 53 53
49 50 51 52 52 52 52 52 51 50 48 47 45 44 43 42 41 40 38 38 39 40 42 42 43 44 47 49 50 49 47 46 47 47 46 45 46 46 46 46 46 46 48 49 51 52 55 57 57 55 52 50 47 44 42 43 43 42 42 40 36 34 34 36 37 39 41 43 44 44 44 44 43 43 43 42 42 44 45 47 48 49 51 51 51
48 49 50 51 50 50 50 49 48 46 45 43 42 41 41 40 40 40 39 39 39 39 40 41 41 43 45 47 48 48 46 44 44 43 41 41 42 42 42 43 42 43 44 46 48 49 50 51 52 52 50 48 47 46 45 45 44 42 40 38 36 35 35 37 38 40 42 44 45 45 45 44 42 41 41 41 42 44 45 47 48 48 49 50 49
48 49 49 49 48 47 47 46 46 44 43 41 41 40 40 39 40 39 39 39 40 40 41 41 42 44 46 47 48 48 48 46 45 44 44 44 44 43 41 41 40 39 39 41 43 45 47 49 51 51 50 48 47 46 45 43 42 42 41 40 39 38 38 39 40 42 43 44 45 45 43 41 40 40 41 42 43 44 45 47 47 48 47 48 48
46 47 47 47 46 45 44 43 43 43 42 41 40 40 39 38 39 38 38 38 40 41 42 42 43 44 46 48 49 50 50 48 46 46 46 45 44 42 41 40 39 38 38 38 38 39 41 43 46 48 48 47 46 44 43 43 43 42 42 42 41 41 40 40 40 41 43 44 44 44 42 41 41 41 42 43 43 43 45 46 46 47 47 47 47
45 45 45 44 43 42 42 43 43 43 43 42 40 39 37 37 37 38 37 37 37 39 41 43 44 45 46 47 48 50 52 50 47 45 43 42 42 43 43 42 42 41 39 37 37 38 39 39 40 43 44 44 44 43 43 42 43 44 43 43 43 42 40 40 41 42 44 44 44 44 43 42 42 42 42 42 43 44 45 46 46 46 46 47 48
44 43 42 42 42 43 44 44 44 43 42 42 42 40 38 36 35 36 37 37 35 36 39 41 42 43 45 47 46 47 49 49 46 43 42 42 42 43 43 43 43 42 41 38 37 39 41 42 43 44 44 44 44 44 44 43 43 44 44 43 42 42 41 40 41 43 44 45 45 44 44 44 42 42 42 43 44 44 45 46 46 46 47 47 48
43 42 42 42 43 44 44 44 43 42 42 42 42 42 42 40 37 36 36 36 36 36 38 39 40 41 43 45 46 45 45 45 44 42 42 42 41 42 43 43 42 42 40 39 39 41 43 43 42 42 44 45 45 44 44 43 43 42 42 42 41 41 41 41 41 42 44 45 45 44 45 45 44 43 43 43 44 45 45 45 46 47 47 47 47
40 41 42 43 44 44 43 43 43 42 42 41 41 41 43 43 43 41 38 36 36 37 38 38 39 39 39 41 43 43 43 41 40 40 40 39 39 39 40 41 41 40 39 40 42 43 43 44 43 41 40 41 43 43 41 40 40 39 39 39 40 40 41 41 40 41 43 45 45 45 45 46 45 44 43 43 44 45 46 46 47 47 46 46 46
38 40 42 43 44 44 43 42 42 42 41 41 41 41 42 43 45 46 44 41 40 39 39 39 38 38 38 38 39 40 40 39 38 38 38 37 37 37 37 37 37 37 38 41 44 44 41 41 43 43 41 39 38 39 38 37 37 36 35 36 38 39 39 38 38 40 42 44 45 45 45 46 45 44 43 43 44 45 46 47 47 46 46 46 45
36 39 41 43 44 44 43 42 42 41 41 40 40 41 41 42 43 45 46 46 46 45 44 42 40 39 38 38 37 38 38 37 37 36 36 35 35 34 35 36 35 35 35 38 42 45 44 41 40 41 42 42 39 38 37 37 35 33 33 34 36 36 36 36 36 39 42 43 44 45 45 45 45 44 43 44 45 45 46 47 47 47 47 46 46
36 39 41 42 42 42 41 41 40 40 40 39 40 40 41 41 42 43 44 46 47 48 48 46 43 41 40 39 37 36 36 35 35 34 33 33 32 31 32 33 34 34 35 36 38 40 42 42 40 37 38 41 41 39 37 36 34 31 30 32 33 34 35 36 37 40 41 43 43 44 44 45 45 44 44 45 46 47 47 47 47 47 47 46 46
37 39 41 41 41 40 40 39 39 38 38 38 39 39 40 40 41 42 43 44 45 47 48 47 45 43 41 38 36 35 34 32 32 30 29 28 27 26 28 30 31 31 33 36 37 37 38 40 42 38 36 36 38 37 34 32 30 29 28 29 32 34 36 37 39 39 41 42 43 43 43 44 44 45 46 46 46 46 46 46 46 46 46 46 46
37 38 40 41 40 39 38 38 37 36 36 37 37 38 39 39 40 41 42 43 44 45 46 47 46 45 41 37 35 36 35 31 28 26 24 24 25 26 28 30 31 32 34 35 36 36 35 36 39 38 34 31 32 34 35 33 33 31 28 28 31 35 37 38 39 39 39 40 41 42 42 43 44 46 47 46 45 45 44 45 45 45 45 45 45
36 37 38 39 39 37 36 36 36 35 35 35 36 37 38 39 40 41 41 42 43 44 45 45 45 44 42 37 35 34 34 31 28 26 25 26 29 30 31 33 33 33 35 34 32 31 31 31 34 36 34 30 29 32 35 34 32 29 27 26 31 35 36 37 38 38 38 39 40 41 42 43 45 46 46 45 44 44 43 43 43 43 43 43 44
34 35 35 36 36 35 34 35 34 34 34 34 35 36 38 39 39 40 41 41 42 43 43 43 42 41 39 37 34 33 34 35 34 32 30 29 30 31 32 34 34 34 34 32 28 26 26 25 26 31 32 30 29 32 33 29 26 25 25 27 31 34 35 36 37 37 37 38 39 40 41 43 44 44 44 44 43 42 42 42 42 42 42 43 42
33 33 33 33 33 33 32 32 32 32 33 34 34 35 36 37 38 38 39 40 41 41 41 42 41 38 36 35 33 32 34 36 36 34 33 32 32 31 32 33 33 32 30 27 24 24 25 24 23 23 25 27 30 32 30 26 24 26 27 28 30 33 35 35 36 36 36 37 38 39 40 42 42 42 42 42 41 41 40 39 39 40 41 41 40
32 32 32 31 31 31 30 30 30 30 31 32 32 33 34 34 34 35 36 37 38 39 39 39 38 36 35 33 32 30 31 32 31 31 31 31 31 31 31 30 29 27 25 23 22 22 21 20 21 21 21 24 29 32 29 25 24 25 27 29 31 33 34 35 35 36 36 36 37 38 39 40 40 40 40 40 39 37 36 36 37 38 38 37 35
31 31 30 29 29 29 29 29 29 29 29 30 30 30 31 31 31 32 32 33 34 34 35 35 35 34 33 31 29 27 26 26 27 27 28 28 28 27 26 24 23 23 23 22 22 21 19 16 17 20 21 22 24 24 21 19 19 22 27 31 32 33 33 34 34 34 34 34 35 36 37 38 38 38 38 38 37 35 34 34 35 35 34 32 31
29 29 28 27 27 27 27 28 28 28 28 28 29 29 28 28 28 28 29 30 30 31 31 32 32 31 30 29 27 24 23 22 23 23 24 25 25 24 22 20 20 21 20 19 19 18 16 12 11 13 13 13 14 13 12 13 16 21 26 30 30 30 31 32 32 32 32 33 34 34 35 36 36 36 36 35 34 34 33 33 33 32 31 31 30
28 27 26 25 26 26 26 26 27 27 27 27 27 27 27 27 26 26 27 28 28 28 29 30 30 29 29 28 26 24 23 22 22 22 22 23 23 22 21 20 19 18 18 17 16 13 10 7 5 4 5 6 8 9 10 13 16 20 24 26 27 27 28 28 28 29 29 30 31 32 33 33 34 34 34 34 33 33 32 32 32 32 32 31 30
26 26 25 25 25 25 25 25 25 26 26 26 26 26 26 26 26 26 27 28 28 28 28 28 28 28 28 27 26 25 24 23 22 21 20 20 20 20 19 19 19 18 16 14 11 9 7 6 6 5 6 7 8 9 11 13 16 19 21 22 23 23 24 24 25 25 25 26 28 29 30 31 31 32 33 32 32 31 32 32 32 32 31 30 28
24 24 24 24 24 24 24 24 25 25 26 27 27 27 26 26 26 26 27 28 28 28 28 28 28 28 28 28 27 26 25 24 22 21 20 19 18 17 16 16 16 16 15 13 10 7 7 7 8 8 8 8 8 9 10 12 13 15 17 18 18 19 18 19 20 21 21 23 24 26 27 28 30 31 31 31 31 31 31 31 30 29 28 26 25
22 22 22 23 23 23 23 23 24 25 26 27 27 28 27 27 26 27 28 29 29 29 30 30 30 30 29 30 29 29 28 26 24 22 20 18 17 16 15 14 14 13 12 11 10 8 7 7 7 7 7 7 7 7 8 8 10 11 12 12 12 11 11 13 15 16 17 19 21 23 25 27 29 31 31 31 31 31 29 29 28 26 25 24 22
20 21 21 21 22 22 22 23 23 24 25 26 27 27 28 27 27 27 28 29 29 30 31 31 32 32 32 32 32 32 31 30 29 27 24 21 20 19 18 16 15 13 11 10 9 9 9 9 9 8 7 6 5 3 3 4 4 5 5 5 4 4 4 7 10 12 14 16 18 21 24 27 29 30 30 29 29 28 27 26 26 24 22 21 20
20 20 20 20 20 21 22 22 23 23 24 24 25 26 27 27 27 27 27 28 28 29 30 30 31 32 32 32 33 33 33 33 33 32 30 28 27 26 24 23 21 19 17 17 16 16 16 15 13 12 10 8 7 6 4 4 4 4 4 5 5 5 4 4 7 10 12 15 19 23 26 27 27 27 27 27 26 25 25 24 23 22 21 20 18
19 19 20 20 20 20 20 20 21 21 22 22 23 24 25 25 26 27 27 27 27 27 28 28 29 30 30 31 32 32 32 33 33 32 32 32 31 30 29 28 27 26 25 25 24 23 22 21 19 18 16 15 14 13 12 11 10 10 10 10 11 11 11 11 10 11 14 17 20 22 22 23 23 24 24 24 23 23 22 21 20 19 18 17 16
18 18 19 19 19 19 19 19 19 20 21 21 22 22 22 23 24 24 25 25 25 25 26 26 27 27 28 28 29 29 30 30 30 30 31 31 30 30 30 30 30 29 29 28 27 27 26 25 24 23 22 21 20 20 19 18 18 17 17 17 18 17 17 17 16 16 16 17 18 18 19 20 21 22 22 22 21 20 19 18 18 17 15 14 14
Wind_Direction
10 10 9 8 7 6 6 3 1 357 352 346 341 337 334 332 332 333 333 333 333 334 335 336 336 335 335 333 330 328 325 321 315 305 295 288 284 280 277 273 269 268 266 264 263 264 264 263 262 261 259 258 255 253 251 249 247 245 244 242 241 240 239 240 244 247 250 251 252 252 250 249 249 250 250 249 248 246 244 241 240 243 243 241 238
2 3 1 1 0 0 1 360 359 358 354 349 343 338 333 331 329 329 329 329 329 329 329 329 330 331 331 331 330 328 325 323 320 314 306 300 294 288 282 278 274 272 270 268 265 265 266 267 266 265 263 261 259 257 254 253 251 250 248 246 244 243 241 241 244 247 248 248 248 248 248 246 246 246 247 247 247 247 246 243 241 243 244 241 236
353 353 353 353 354 355 356 355 355 355 353 352 348 344 339 334 331 329 329 329 330 330 329 328 326 324 324 324 324 324 323 321 319 316 312 307 303 298 292 285 280 276 274 272 270 268 267 268 268 268 267 265 263 261 258 256 254 253 252 250 248 247 245 244 245 246 247 247 247 247 247 246 246 246 246 246 246 246 246 244 243 243 244 241 236
342 343 345 346 347 348 348 348 349 350 349 349 348 347 344 341 338 333 330 329 328 329 329 329 329 326 324 322 320 320 320 318 316 314 312 309 305 302 299 294 290 285 280 277 273 271 269 269 269 269 269 267 265 264 262 259 257 255 254 252 250 250 249 247 246 246 246 247 246 246 246 247 248 247 244 243 242 244 245 244 242 241 241 240 238
331 332 333 336 338 339 339 340 340 341 342 342 342 343 342 341 340 337 334 330 327 325 325 325 326 326 326 324 322 320 319 317 315 313 310 307 305 303 301 298 296 293 290 286 281 276 272 270 270 270 269 267 266 266 264 262 260 257 256 254 252 251 250 249 248 246 245 246 246 246 244 244 245 245 243 241 241 240 240 240 240 239 238 237 236
323 324 324 326 329 331 331 332 332 331 331 332 333 334 334 334 334 333 332 331 329 325 321 319 319 319 320 321 320 319 318 317 317 315 313 309 305 303 301 299 297 296 294 293 290 285 280 275 272 270 269 268 267 266 265 264 262 260 258 257 255 253 251 250 248 246 245 245 246 245 243 241 240 241 242 241 240 241 239 238 237 236 235 235 235
320 321 322 321 322 324 324 325 326 325 324 323 324 324 324 324 324 324 324 324 324 323 321 318 315 313 312 313 314 315 315 315 315 315 315 313 309 306 303 300 298 297 295 294 292 290 286 282 277 273 270 269 269 268 266 264 263 262 261 259 257 254 252 251 249 247 245 244 243 244 243 242 240 240 241 240 239 239 238 237 235 235 234 234 234
314 315 315 316 317 316 316 317 318 318 317 318 317 317 316 316 315 316 316 316 316 316 316 315 313 311 309 308 307 309 310 311 313 313 312 312 311 308 306 304 302 299 297 295 293 291 288 286 283 279 274 272 271 270 268 266 264 262 261 260 257 254 252 251 249 247 245 243 242 242 243 242 240 238 237 236 234 233 234 234 235 237 236 235 235
311 311 311 313 314 314 314 314 313 313 312 312 312 312 312 311 311 310 310 310 310 309 309 308 308 307 306 305 303 302 302 304 307 309 309 310 309 308 307 305 304 302 300 298 296 293 292 289 287 285 282 278 275 272 269 267 265 263 262 259 256 254 252 250 248 246 245 242 241 240 241 241 239 236 233 233 234 235 235 234 234 235 236 236 236
312 312 312 313 313 313 313 313 313 312 311 310 310 310 309 309 309 308 308 308 307 307 306 304 303 303 303 302 301 300 298 298 299 300 302 304 305 306 305 304 303 302 301 299 298 297 295 293 291 289 286 283 280 277 273 269 266 264 263 260 257 254 253 250 247 244 243 241 239 238 238 239 239 237 236 237 238 237 236 235 234 233 232 232 233
310 309 309 309 308 307 308 309 309 310 310 311 310 310 309 308 308 307 307 307 306 306 304 302 301 301 300 300 299 298 296 295 295 295 295 296 298 299 300 300 301 300 300 299 298 298 297 296 294 293 289 287 285 283 281 277 271 266 263 260 257 254 252 250 248 245 242 241 240 237 237 239 240 239 238 238 237 237 237 236 234 233 232 231 232
306 304 303 303 302 302 302 302 302 303 304 306 306 307 307 306 306 306 305 305 305 303 302 301 300 300 299 298 297 296 295 293 292 292 291 290 291 292 293 295 295 296 297 298 298 298 298 297 295 294 293 291 290 288 286 283 280 274 268 262 257 253 251 250 249 247 243 242 241 239 237 239 240 240 239 238 237 237 237 236 235 234 234 235 235
301 300 301 302 303 303 303 303 304 304 304 304 304 304 304 304 304 304 303 303 302 301 299 298 296 296 296 296 296 295 294 292 292 291 289 287 287 287 288 289 290 291 292 293 295 296 297 298 297 295 294 294 293 291 289 288 287 283 277 269 260 254 251 249 249 248 247 245 243 242 241 240 239 240 241 240 238 237 236 235 235 234 235 237 239
293 297 301 304 306 306 307 307 307 307 307 307 306 305 304 303 303 303 303 302 301 300 298 297 295 293 292 292 292 292 291 291 291 292 291 289 287 286 285 284 284 285 286 287 289 291 293 296 296 296 295 295 294 293 291 290 289 287 283 277 268 260 254 250 248 246 246 245 245 245 245 242 241 242 243 243 242 241 239 239 238 237 238 241 244
290 297 302 305 306 307 308 308 307 307 307 306 305 304 303 302 302 302 301 300 299 298 297 296 295 293 292 290 289 288 287 287 288 289 290 290 289 288 286 284 282 281 281 282 283 285 287 290 292 294 294 294 294 293 292 290 287 285 283 280 275 269 262 255 250 246 245 244 245 247 247 245 243 243 244 245 247 247 246 246 246 246 244 244 243
293 299 303 305 306 306 306 305 304 304 303 302 300 299 299 299 299 299 298 297 297 296 295 294 293 292 292 290 289 287 286 285 284 284 285 286 287 288 287 286 284 282 281 280 279 280 281 283 286 289 291 292 293 293 292 289 283 281 281 280 279 276 270 263 257 252 248 246 246 247 247 246 244 242 242 244 246 248 246 244 243 242 239 238 237
300 303 305 305 306 305 304 302 302 301 299 296 295 295 295 295 295 295 294 293 293 292 292 291 290 289 288 287 286 286 285 284 283 282 281 281 282 283 284 285 284 283 282 281 279 278 277 278 280 283 285 288 290 292 292 288 281 278 277 278 277 277 276 274 268 260 255 250 248 247 247 247 245 243 241 242 243 244 242 238 236 235 233 232 234
310 310 309 308 308 307 305 303 301 299 296 294 294 294 295 295 294 294 292 291 290 291 290 290 289 288 286 285 283 282 281 281 280 280 279 278 278 279 280 281 282 282 282 281 279 278 276 275 275 277 279 282 285 289 289 285 280 278 277 276 274 272 276 278 273 267 262 256 251 248 245 244 244 242 241 240 241 241 240 239 237 234 232 233 234
313 312 310 309 307 306 305 304 302 301 299 298 297 297 297 296 295 294 291 290 289 289 289 288 287 287 286 285 284 282 281 280 279 277 277 277 276 277 278 278 278 278 279 280 279 278 277 274 273 273 275 277 279 283 285 283 279 278 279 276 271 271 276 276 270 268 266 261 256 252 247 242 240 240 239 238 238 239 241 241 240 236 234 233 232
311 309 307 307 306 306 306 306 305 304 302 301 300 298 297 296 295 294 292 290 288 287 286 285 284 284 284 283 282 282 281 280 279 278 277 276 275 276 276 276 276 276 276 276 277 277 276 275 272 270 271 273 275 279 282 282 279 277 277 273 270 276 281 274 267 267 267 263 260 258 254 249 244 241 239 237 235 236 237 238 237 236 235 233 231
308 308 307 308 308 308 308 307 306 304 302 301 300 299 298 297 295 294 292 290 288 287 285 284 283 282 282 281 280 280 280 280 279 278 277 275 274 274 275 275 274 274 274 273 273 274 274 274 273 271 270 270 273 277 280 281 279 277 275 273 275 281 281 271 266 267 264 260 260 259 257 255 251 247 244 240 237 235 234 234 234 235 235 233 231
310 310 310 311 311 310 309 307 306 304 303 303 302 301 300 300 299 297 295 293 290 288 286 285 283 283 282 281 280 280 280 280 280 279 278 277 274 273 273 273 272 272 272 271 271 271 271 271 272 272 271 270 271 273 277 280 279 276 274 276 278 279 274 267 265 264 260 258 258 257 256 255 252 250 247 243 240 237 235 234 233 232 233 233 233
313 312 313 313 312 310 309 308 308 308 308 307 306 305 304 304 304 303 301 298 294 292 290 288 286 285 284 283 282 281 281 281 282 281 281 280 278 276 275 274 273 272 270 269 269 269 269 270 270 271 271 271 271 271 273 276 276 274 274 276 277 276 270 263 260 259 257 256 254 253 253 253 251 249 247 244 242 238 235 233 232 230 230 231 232
314 314 314 313 312 312 312 312 312 312 312 312 310 309 309 310 309 308 306 303 300 296 294 292 290 287 286 285 284 284 283 283 282 281 281 281 281 280 278 277 275 272 269 267 266 267 267 268 268 269 270 271 271 270 271 272 273 272 273 273 272 268 262 258 256 255 253 252 249 249 250 249 248 248 247 245 242 239 236 234 232 230 229 230 230
315 315 315 315 315 315 314 314 314 314 315 315 314 314 314 313 311 310 307 304 301 298 296 295 293 290 289 288 288 288 287 286 286 285 284 284 283 282 281 278 274 271 268 266 264 265 266 267 268 269 269 269 269 269 268 268 269 270 271 270 265 258 254 252 252 250 248 248 247 246 247 247 247 247 246 245 242 239 236 233 230 228 228 228 228
316 317 317 317 318 317 317 317 318 318 318 319 317 316 315 312 310 308 306 304 301 298 296 295 294 291 290 289 289 289 289 289 289 288 288 287 286 285 285 282 279 274 270 265 262 261 261 263 266 266 266 266 266 266 265 265 266 267 267 263 257 252 249 247 246 244 244 245 245 246 246 245 244 244 244 242 240 237 235 232 228 226 226 226 225
318 319 320 320 321 322 321 321 320 320 320 320 319 316 314 311 308 306 305 304 302 299 297 295 295 293 292 292 292 292 291 291 290 290 291 291 290 289 286 284 282 279 274 269 265 262 260 259 261 262 262 263 264 263 262 262 262 261 260 259 255 251 248 246 245 244 244 244 244 245 245 243 241 240 239 238 236 235 234 231 228 226 223 222 222
320 321 323 324 325 324 323 322 322 322 322 321 319 317 315 313 309 307 306 305 303 301 300 298 297 296 295 295 296 295 294 293 293 295 296 296 295 293 290 286 285 282 277 273 271 269 267 263 261 259 258 258 259 258 257 256 255 255 255 256 255 253 249 246 244 243 244 244 244 242 242 241 238 237 236 234 233 232 231 229 228 226 223 221 219
322 325 327 326 325 324 324 325 325 324 323 322 320 317 316 315 311 307 306 305 301 298 298 297 295 295 295 294 294 294 293 294 295 295 294 292 290 289 287 285 284 283 279 276 274 272 271 267 262 258 256 255 255 254 253 252 251 250 251 252 252 250 247 244 242 241 242 242 241 239 238 237 236 234 232 230 230 229 228 227 225 223 222 220 218
325 328 328 326 327 328 328 328 327 325 323 322 319 317 317 316 312 307 305 304 299 293 291 292 292 293 292 292 292 291 291 293 294 293 291 289 287 286 284 283 281 280 279 277 275 273 270 267 261 257 255 255 254 253 252 251 250 248 247 247 247 245 243 242 240 240 240 240 239 237 235 233 232 230 228 226 224 224 224 224 223 222 220 218 217
326 327 329 330 332 332 330 328 327 325 323 321 318 316 315 316 315 313 311 307 302 297 294 292 292 292 292 292 292 292 291 293 294 293 292 291 289 287 285 283 281 279 278 276 273 270 268 266 262 257 254 253 252 252 251 249 247 246 245 244 243 241 240 240 239 239 239 238 237 235 232 230 230 227 225 223 221 220 220 220 219 220 220 219 218
326 329 333 335 335 334 330 329 327 324 322 321 319 317 315 313 313 315 315 311 307 304 301 298 296 296 295 294 294 294 295 295 295 295 294 293 291 289 287 285 283 281 278 275 273 271 267 264 263 260 256 251 248 249 249 247 246 245 244 242 240 239 238 238 238 237 236 235 234 232 229 228 227 225 223 222 220 219 218 217 217 217 217 218 219
330 334 338 337 336 334 331 329 327 324 322 320 318 317 315 312 312 313 315 316 316 314 311 308 305 302 300 299 297 297 297 297 297 297 297 295 293 291 289 287 285 282 277 273 273 274 272 268 264 260 258 254 250 248 247 247 247 246 244 242 241 240 239 238 237 236 234 233 233 231 228 226 224 222 221 221 221 220 218 217 216 215 215 215 215
337 340 341 339 335 333 331 329 326 324 322 319 317 316 314 313 312 313 314 316 318 319 320 320 318 313 308 305 302 300 300 300 300 299 298 297 294 292 291 290 289 286 280 275 273 272 271 271 269 263 258 256 254 252 249 248 249 249 247 245 243 241 241 240 238 236 233 231 231 230 228 224 222 221 220 219 218 218 217 216 215 214 212 212 211
343 344 344 340 335 332 331 329 326 324 322 320 319 317 316 315 314 314 314 315 315 316 318 322 325 325 319 313 309 305 303 302 302 301 300 297 295 293 294 295 294 290 284 279 275 272 268 267 268 267 262 256 253 251 248 245 245 247 248 246 244 243 243 242 239 236 232 230 229 229 226 223 222 222 222 220 218 215 214 214 214 213 212 211 211
347 346 344 340 336 332 331 329 328 326 324 323 321 320 318 317 315 314 314 314 314 314 316 319 324 328 328 325 322 318 313 309 306 305 303 301 300 299 298 297 297 296 292 284 276 272 268 262 260 265 268 262 253 247 243 241 243 247 251 250 247 244 243 241 238 234 231 228 228 227 224 222 220 220 220 218 217 215 215 215 214 213 212 212 212
349 347 344 340 335 332 331 331 330 329 327 325 323 322 320 319 317 316 315 315 315 315 317 319 322 325 330 335 336 332 327 322 318 317 317 318 320 317 312 306 304 305 304 294 279 271 269 263 257 259 268 270 260 249 243 243 245 249 253 254 250 245 243 241 238 234 230 227 226 226 224 222 219 218 217 214 212 212 213 214 213 212 211 212 211
349 347 344 339 335 332 332 332 332 332 331 330 328 326 324 322 321 319 317 317 317 317 318 320 321 323 328 336 341 338 335 333 332 332 334 335 332 328 324 321 317 314 313 305 287 274 270 265 255 252 261 272 270 254 242 239 243 248 253 255 251 246 242 240 237 233 230 227 225 224 223 220 218 217 216 214 213 212 212 212 212 210 208 209 210
350 348 344 339 335 333 333 334 334 335 334 334 332 330 327 324 323 322 320 320 320 320 320 321 322 325 329 335 340 342 338 333 330 330 332 334 333 331 330 327 321 318 319 315 301 286 281 275 262 253 256 266 269 258 244 240 246 252 253 252 248 241 236 234 231 228 225 223 222 221 220 219 218 216 214 214 213 213 212 212 211 210 209 209 210
350 348 344 339 336 335 335 336 337 337 336 335 334 332 330 328 325 324 323 322 322 323 322 322 323 328 332 335 339 338 330 324 323 325 326 329 330 328 326 321 316 317 324 324 313 301 294 287 276 265 258 259 261 255 247 243 248 251 250 248 245 239 234 232 229 226 224 222 221 220 219 219 217 214 212 211 212 213 213 211 210 210 211 211 210
352 347 343 341 338 337 338 340 340 340 339 338 336 335 333 332 330 329 327 326 325 325 325 325 327 331 335 338 338 332 321 317 319 321 320 322 322 318 315 313 313 318 325 325 318 314 309 291 273 263 259 257 254 249 243 241 247 250 248 244 239 235 231 228 226 224 222 220 220 219 219 218 217 214 211 210 210 210 211 210 208 207 208 208 207
352 347 343 342 341 341 343 343 343 343 343 343 342 340 338 337 335 333 331 330 329 328 329 330 332 335 338 338 334 328 321 319 320 319 319 321 320 317 315 317 318 321 323 321 320 327 330 309 271 255 251 249 245 242 241 247 252 250 244 238 233 228 225 223 222 221 220 219 219 219 218 217 215 213 210 209 208 207 207 206 205 204 203 202 201
352 347 344 343 345 346 347 346 345 346 347 347 347 347 345 343 341 339 337 337 336 336 336 337 339 341 343 341 338 337 337 337 334 333 334 334 331 328 327 328 327 325 325 325 324 328 331 318 277 250 242 243 244 247 256 264 261 252 243 236 229 225 224 222 220 219 219 218 217 216 215 213 211 209 207 207 206 204 203 201 200 198 197 196 196
351 347 346 348 350 352 352 351 350 350 351 351 352 352 352 350 349 350 349 346 345 344 344 344 346 348 350 350 349 350 352 353 350 348 347 346 344 341 337 334 333 332 329 327 325 326 328 324 302 272 260 259 257 257 259 259 255 249 242 236 230 227 225 224 223 222 221 218 216 213 211 209 207 206 205 204 202 199 197 195 194 193 192 191 190
350 348 349 352 355 355 356 356 356 356 357 357 358 359 360 359 359 0 360 357 356 356 355 354 355 357 358 358 358 357 358 359 358 357 355 355 354 351 347 343 342 341 337 332 328 327 332 332 327 317 304 286 274 267 261 254 247 241 238 234 232 229 228 227 227 225 222 220 216 212 208 206 204 203 200 197 195 194 192 190 190 189 187 187 186
351 351 353 354 356 357 358 360 2 3 4 4 5 6 8 9 9 11 11 9 8 9 8 8 9 9 9 8 8 6 5 5 4 3 3 2 1 360 358 354 349 344 341 339 335 333 332 329 325 323 319 309 298 286 272 257 246 239 235 232 232 233 234 232 229 225 221 220 216 211 206 202 200 197 194 191 190 189 188 186 186 185 184 184 183
352 355 356 356 356 359 0 2 5 8 10 12 13 14 15 16 18 21 22 21 21 22 22 23 23 23 23 23 21 18 17 15 14 13 13 12 11 12 11 8 5 360 355 351 349 352 356 351 343 338 331 322 311 295 275 257 246 241 238 234 236 242 245 240 231 223 217 215 212 207 202 196 190 189 188 187 186 185 183 181 181 181 180 181 181
354 356 357 358 358 359 1 4 6 10 13 16 17 19 20 21 24 27 29 30 31 31 31 32 33 33 34 34 32 31 30 28 27 26 26 26 27 29 28 28 29 29 29 30 34 39 41 40 35 27 17 6 357 339 296 262 241 233 228 221 218 230 241 235 222 210 205 204 202 198 193 188 184 184 184 184 182 181 179 177 177 177 177 179 180
355 356 357 359 0 1 2 4 6 9 12 15 17 20 22 23 25 27 30 32 34 35 35 35 35 35 36 37 38 37 37 37 37 37 37 38 39 40 41 43 44 46 49 55 57 57 57 57 56 55 55 56 59 66 75 90 107 123 135 142 145 147 151 172 186 187 185 185 185 183 183 182 181 180 179 178 177 176 174 174 174 175 176 179 181
355 356 358 360 1 3 4 4 5 8 11 12 15 18 20 22 24 25 26 28 30 33 34 35 36 36 37 38 39 39 40 41 41 43 44 44 45 46 48 50 52 53 55 58 59 61 63 65 67 69 73 76 79 84 88 93 99 106 114 118 119 120 122 130 141 152 160 167 171 173 175 176 175 173 171 171 171 171 171 172 174 176 179 182 183
354 356 359 1 2 3 5 6 7 9 10 12 14 16 17 20 22 23 24 25 27 29 31 35 37 38 39 40 40 41 42 43 45 46 48 48 49 50 52 54 56 58 60 62 64 66 68 70 72 74 76 78 81 84 87 89 92 96 99 102 105 108 112 117 124 133 143 153 158 161 164 166 166 165 165 166 168 169 171 172 175 179 181 184 187